Location: Arclight Observatory
(36.5667°N, 87.3333°W)
Time: 11:24:28
(UTC-05:00)

Daily predictions for brighter satellites

Satellite Brightness Start Highest point End
(mag) Time Altitude Azimuth Time Altitude Azimuth Time Altitude Azimuth
USA 234 4.2 19:00:52 10° SSE 19:07:11 51° SW 19:13:33 10° NW
ALOS 2.5 19:04:03 10° SSE 19:08:31 50° ENE 19:13:02 10° N
OAO 2 Rocket 4.1 19:04:05 10° W 19:09:14 51° SSW 19:14:22 10° ESE
Lacrosse 5 2.0 19:05:22 10° NW 19:10:25 64° NE 19:15:26 10° SE
Geosat 4.1 19:05:52 10° SE 19:10:46 57° ENE 19:15:42 10° NNW
Cosmos 1726 Rocket 4.3 19:07:46 10° SSE 19:11:37 31° E 19:15:28 10° NNE
Cosmos 1271 Rocket 2.8 19:10:38 10° S 19:14:15 49° E 19:17:55 10° NNE
FREGAT/IRIS 3.5 19:14:42 10° SE 19:17:22 29° ENE 19:20:02 10° NNE
METEOR-M 4.4 19:12:29 10° S 19:17:49 76° WSW 19:23:11 10° NNW
Resurs 01 Rocket 3.4 19:17:35 10° E 19:19:55 14° ENE 19:22:15 10° NNE
Cosmos 2263 4.4 19:15:18 10° NNW 19:20:46 51° ENE 19:26:15 10° SE
Cosmos 1943 3.6 19:16:30 10° SSW 19:22:08 72° WNW 19:27:51 10° NNE
Cosmos 2292 Rocket 4.1 19:24:03 10° SSW 19:27:34 47° W 19:30:33 10° N
FALCON 9 R/B 1.5 19:25:45 10° WSW 19:28:16 52° SSE 19:33:19 11° E
Cosmos 468 Rocket 3.9 19:25:00 10° SSW 19:30:10 79° ESE 19:35:26 10° NNE
NOAA 12 4.2 19:26:00 10° SSE 19:31:14 82° WSW 19:36:30 10° NNW
Cosmos 332 Rocket 4.1 19:26:23 10° SSW 19:31:16 75° WNW 19:36:09 10° NNE
Cosmos 841 Rocket 4.1 19:27:44 10° SSE 19:32:15 32° E 19:36:47 10° NE
SJ-6B 3.4 19:28:40 10° SE 19:32:27 39° ENE 19:36:10 10° N
Cosmos 1937 Rocket 4.0 19:29:07 10° N 19:34:06 40° ENE 19:39:01 10° SE
Cosmos 1378 3.9 19:32:48 10° NNE 19:36:14 33° E 19:39:39 10° SE
Cosmos 371 Rocket 3.5 19:32:46 10° SSW 19:37:38 79° WNW 19:42:32 10° NNE
USA 229 DEB 4.0 19:32:27 10° NNW 19:39:33 58° NE 19:46:45 10° SE
USA 229 4.0 19:32:33 10° NNW 19:39:38 58° NE 19:46:49 10° SE
HJ-1C 3.6 19:42:24 10° SSE 19:45:37 47° ENE 19:48:52 10° N
Cosmos 2058 Rocket 3.1 19:42:17 10° S 19:46:32 57° E 19:50:49 10° NNE
Cosmos 2084 3.4 19:45:38 10° SSW 19:49:40 51° ESE 19:53:31 10° NE
Cosmos 1606 Rocket 3.8 19:45:23 10° SSW 19:49:44 73° W 19:54:05 10° N
Cosmos 2228 3.0 19:47:05 10° S 19:51:23 60° E 19:55:41 10° NNE
Thor Agena Rocket 4.2 19:46:33 10° N 19:51:45 61° WNW 19:56:50 10° SSW
Cosmos 1953 Rocket 3.4 19:48:06 10° N 19:52:27 78° E 19:56:45 10° S
Cosmos 1763 Rocket 3.3 19:50:03 10° S 19:55:06 75° ESE 20:00:15 10° NNE
ATLAS CENTAUR R/B 3.6 19:49:10 10° NW 20:02:42 55° NE 20:05:47 25° ESE
Cosmos 540 Rocket 4.1 20:00:07 10° SSE 20:04:33 31° E 20:09:00 10° NE
Meteor 2-5 Rocket 3.7 19:59:12 10° N 20:05:05 75° E 20:10:49 10° SSE
GEOS 3 Rocket 3.8 20:03:14 10° NE 20:08:29 50° ESE 20:13:39 10° SSW
Cosmos 1943 Rocket 2.4 20:05:48 10° NNW 20:11:22 72° WSW 20:16:57 10° SSE
H-2A R/B 3.4 20:08:02 10° S 20:11:39 54° W 20:15:19 10° NNW
Meteor 1-22 Rocket 4.2 20:06:37 10° S 20:12:21 61° E 20:17:52 10° NNE
Spot 2 Rocket 3.7 20:12:52 26° SE 20:15:22 50° ENE 20:20:14 10° N
Cosmos 2181 Rocket 4.4 20:10:41 10° NNW 20:16:48 64° W 20:22:50 10° S
TIMED 4.4 20:12:52 10° NNW 20:17:16 89° ENE 20:19:55 23° SSE
BREEZE-M DEB (TANK) 3.7 20:03:41 10° SW 20:18:15 89° SSE 20:21:11 24° ENE
Cosmos 1939 Rocket 4.3 20:19:29 22° NE 20:19:29 22° NE 20:21:32 10° NNE
Cosmos 1766 3.1 20:16:12 10° S 20:20:06 64° E 20:24:00 10° NNE
OAO 3 Copernicus 4.4 20:16:17 10° WSW 20:21:13 57° SSE 20:22:40 41° ESE
GPS 2-04 Rocket1 4.3 20:17:36 10° W 20:21:17 28° SSW 20:22:45 23° S
Cosmos 2154 Rocket 4.1 20:22:06 12° SSE 20:27:40 47° E 20:33:37 10° NNE
COSMOS 2406 3.1 20:23:03 10° S 20:28:39 65° ESE 20:34:20 10° NNE
Tiangong 2 3.5 20:28:00 10° WSW 20:30:00 15° SW 20:30:36 15° SSW
Cosmos 304 Rocket 3.9 20:26:05 10° SSW 20:30:50 72° WNW 20:35:39 10° NNE
Cosmos 1707 4.4 20:29:58 10° NNW 20:33:32 34° W 20:37:06 10° SSW
Cosmos 2074 Rocket 4.1 20:28:58 10° SSW 20:35:09 75° W 20:41:23 10° N
Cosmos 1125 Rocket 4.0 20:34:08 10° N 20:38:48 40° ENE 20:38:48 40° ENE
Resurs 1-3 3.6 20:40:34 43° S 20:41:58 76° WSW 20:46:22 10° NNW
Envisat 2.9 20:45:42 45° S 20:47:19 87° WSW 20:52:26 10° NNW
Cosmos 1356 Rocket 4.1 20:43:37 10° NNW 20:47:50 56° W 20:49:19 36° SSW
Lacrosse 5 4.3 20:49:37 10° WNW 20:52:54 17° WSW 20:56:09 10° SSW
Cosmos 1656 Rocket 3.7 20:48:23 10° NNW 20:54:01 74° WSW 20:55:34 48° S
Resurs 01 Rocket 2.5 20:54:17 32° SSW 20:55:57 48° W 21:00:15 10° NNW
Cosmos 372 Rocket 4.5 20:57:19 10° N 21:01:24 48° NNE 21:01:24 48° NNE
Nadezhda 3 Rocket 3.8 20:58:26 10° N 21:04:46 80° E 21:05:25 71° SE
BREEZE-M (TANK) 3.5 20:56:02 10° NW 21:05:02 52° SW 21:05:13 52° SW
GP-B 3.8 21:04:56 10° N 21:09:15 51° W 21:09:18 51° W
ATLAS 2AS CENTAUR R/B 4.2 21:19:17 10° NNW 21:25:45 27° NE 21:25:45 27° NE
Milstar 3 Cent rocket 4.2 21:25:08 10° SW 21:25:52 14° SW 21:25:52 14° SW
NOSS 3-1 (A) 4.1 21:27:28 10° NW 21:35:17 72° WSW 21:36:22 65° SSW
